Temperature
14 14 15 15 13 12 13 14 16 18 18 19 19 18 17 17 18 17 16 16 16 16 16 16 16 17 17 17 17 17 17 17 17 17 17 17 17 17 17 16 16 16 16 16 16 16 16 16 16
14 14 15 14 12 13 13 14 16 17 19 19 19 18 16 16 16 16 16 16 16 16 16 16 16 16 16 17 17 17 17 17 17 17 17 17 17 16 16 16 16 16 16 16 16 16 16 16 16
14 14 14 12 12 13 15 16 16 18 19 19 18 18 17 16 16 16 16 16 16 16 16 16 16 16 16 16 16 16 16 16 16 16 16 16 16 16 16 16 16 16 16 16 16 16 16 15 15
14 14 14 11 13 13 15 17 17 17 19 19 18 16 16 16 16 16 16 16 16 16 16 16 16 16 16 16 16 16 16 16 16 16 16 16 16 16 16 16 15 15 15 15 15 15 15 15 15
14 14 12 12 13 14 15 16 17 17 18 18 17 15 16 16 16 16 16 16 16 15 15 15 16 16 16 16 16 16 16 16 16 16 16 15 15 15 15 15 15 15 15 15 15 15 15 15 15
13 12 11 12 13 15 15 18 18 16 17 17 17 15 15 16 16 16 16 16 16 15 15 15 15 15 16 16 16 15 15 15 15 15 15 15 15 15 15 15 14 14 14 14 14 14 14 14 14
13 11 12 13 14 15 16 18 17 16 16 17 17 14 14 15 15 15 15 15 15 15 15 15 15 15 15 15 15 15 15 15 15 15 15 15 15 15 15 14 14 14 14 14 14 14 14 14 14
13 11 13 13 14 15 17 18 18 17 16 17 18 14 14 15 15 15 15 15 15 15 15 15 15 15 15 15 15 15 15 15 15 14 14 14 14 14 14 14 14 14 14 14 14 14 14 14 13
13 11 12 13 14 15 16 16 17 17 17 17 17 17 17 15 15 15 14 14 14 14 14 15 15 15 15 15 14 14 14 14 14 14 14 14 14 14 14 14 13 13 13 13 13 13 13 13 13
13 11 12 14 15 15 15 16 16 16 15 15 16 16 16 15 15 15 15 14 14 14 14 14 14 14 14 14 14 14 14 14 14 14 14 13 13 13 13 13 13 13 13 13 13 13 13 13 13
12 11 13 14 15 15 15 15 16 15 14 15 15 15 15 15 15 15 15 14 14 14 14 14 14 14 14 14 14 14 14 13 13 13 13 13 13 13 13 13 13 12 12 12 12 12 12 12 12
12 12 13 14 15 15 15 15 15 15 16 16 16 16 15 15 15 15 14 14 14 14 14 14 14 14 13 13 13 13 13 13 13 13 13 13 13 13 12 12 12 12 12 12 12 12 12 12 12
12 12 13 14 15 14 14 14 14 14 16 16 16 15 15 15 15 14 14 14 14 14 14 13 13 13 13 13 13 13 13 13 13 13 12 12 12 12 12 12 12 12 12 12 12 12 11 11 11
12 12 13 13 14 14 13 13 13 14 15 15 15 15 15 15 14 14 14 14 14 14 13 13 13 13 13 13 13 13 12 12 12 12 12 12 12 12 12 12 12 11 11 11 11 11 11 11 11
13 11 11 12 13 13 13 12 12 14 14 14 14 14 14 14 14 14 14 14 14 13 13 13 13 13 13 13 12 12 12 12 12 12 12 12 12 11 11 11 11 11 11 11 11 11 10 10 10
11 10 10 11 12 12 12 11 12 14 14 13 14 14 14 14 14 14 14 14 14 13 13 13 13 12 12 12 12 12 12 12 12 12 11 11 11 11 11 11 11 11 11 10 10 10 10 10 10
9 9 9 11 12 12 11 11 11 13 13 12 13 13 14 14 14 14 14 14 13 13 13 13 12 12 12 12 12 12 12 11 11 11 11 11 11 11 11 10 10 10 10 10 10 10 9 10 9
8 8 9 10 11 11 10 10 10 12 12 12 13 13 13 13 14 14 13 13 13 13 13 12 12 12 12 11 11 11 11 11 11 11 11 10 10 10 10 10 10 10 10 10 9 9 9 9 9
9 9 9 10 11 11 10 10 10 11 11 11 11 12 13 13 13 13 13 13 13 13 12 12 12 12 11 11 11 11 11 11 11 10 10 10 10 10 10 10 10 9 9 9 9 9 9 8 8
9 9 9 10 11 11 10 10 10 10 10 11 11 12 12 12 13 13 13 13 13 13 12 12 12 11 11 11 11 11 11 11 10 10 10 10 10 10 9 9 9 9 9 9 9 8 8 8 8
9 8 9 9 10 10 10 9 9 9 10 11 11 12 12 12 12 12 12 12 12 12 12 12 11 11 11 11 10 10 10 10 10 10 10 9 9 9 9 9 9 9 9 9 8 8 8 8 7
9 9 9 9 9 8 9 7 8 9 9 9 10 11 11 12 12 12 12 12 12 12 11 11 11 11 10 10 10 10 10 10 10 10 9 9 9 9 9 9 9 9 9 8 8 8 8 7 7
9 9 9 9 8 7 8 7 8 8 8 9 9 10 11 11 11 11 11 11 11 11 11 11 10 10 10 10 10 9 9 9 9 9 9 9 9 8 8 8 8 8 8 8 8 8 7 7 7
8 8 8 7 7 7 7 7 7 7 8 8 9 9 10 11 11 11 11 11 11 11 10 10 10 10 9 9 9 9 9 9 9 9 8 8 8 8 8 8 8 8 8 8 8 7 7 7 7
8 6 6 6 6 6 7 7 7 8 8 8 8 9 9 10 10 10 10 10 10 10 10 10 9 9 9 9 9 9 9 9 8 8 8 8 8 8 8 8 8 8 8 7 7 7 7 7 7
6 6 6 6 6 6 7 7 7 7 7 8 9 9 9 9 10 10 10 9 9 9 9 9 9 9 9 8 8 8 8 8 8 8 8 8 8 8 8 8 8 7 7 7 7 7 7 7 7
6 6 6 5 5 6 6 7 7 7 7 7 7 7 8 8 9 9 9 9 9 9 9 9 8 8 8 8 8 8 8 8 8 8 8 8 8 8 7 7 7 7 7 7 7 7 6 6 6
6 6 5 5 6 7 7 7 6 7 6 6 6 6 7 7 8 8 8 8 8 8 8 8 8 8 8 8 8 7 7 8 8 7 7 7 7 7 7 7 7 7 7 6 6 6 6 6 6
5 5 5 4 5 6 6 7 7 6 6 5 5 6 7 7 7 7 7 7 7 7 7 7 7 7 7 7 7 7 7 7 7 7 7 7 7 7 7 6 6 6 6 6 6 6 6 6 6
5 5 4 4 4 4 5 6 6 5 5 5 5 6 6 6 6 6 7 6 6 6 6 7 7 7 7 7 7 7 7 7 7 7 7 6 6 6 6 6 6 6 6 6 6 6 6 5 5
Wind_Speed
1 2 3 3 5 3 4 6 4 2 2 2 2 7 8 6 4 6 3 7 11 10 11 14 14 14 13 13 12 12 12 11 11 11 10 10 9 9 9 8 8 7 6 6 6 6 5 5 5
2 2 4 4 5 3 6 6 6 6 5 4 4 6 7 5 3 7 5 9 12 11 12 13 14 14 13 13 12 12 11 11 10 10 10 9 9 8 7 7 7 7 6 6 5 5 4 4 4
2 2 4 4 4 7 6 5 7 3 3 4 3 5 6 6 5 5 7 12 11 10 11 12 14 13 13 13 12 11 11 10 10 9 9 8 8 7 7 6 6 6 6 5 5 4 4 3 3
3 3 3 3 6 7 6 4 2 2 1 3 5 6 3 1 5 7 11 12 12 8 10 12 14 13 13 12 11 11 10 9 9 8 8 7 7 6 6 6 5 5 4 4 4 4 3 3 3
3 4 3 3 6 5 6 6 3 2 1 2 5 6 3 4 6 11 12 12 12 9 9 12 13 12 12 11 11 10 9 9 8 8 7 6 6 6 5 5 5 4 3 3 3 3 3 3 3
3 3 4 5 6 4 5 5 3 3 2 2 5 7 3 1 8 9 11 10 11 10 8 11 12 12 11 11 10 9 9 8 8 7 7 6 5 5 5 4 4 4 3 3 2 2 3 3 3
4 4 5 5 4 5 5 4 4 5 4 4 7 7 4 2 5 8 10 10 9 9 8 8 9 10 11 10 9 9 8 8 7 7 6 6 5 5 4 4 3 3 3 3 2 2 3 3 3
5 4 4 5 5 5 3 1 2 5 4 2 5 9 7 7 7 9 9 9 8 7 7 6 8 8 8 8 8 8 7 7 7 6 6 6 6 5 4 4 3 3 3 3 3 3 3 3 4
4 3 5 6 6 4 1 1 1 1 4 3 2 5 7 11 10 10 8 7 6 6 5 5 6 6 7 7 7 7 7 6 6 5 6 5 5 4 4 4 3 3 3 3 3 3 3 3 4
4 5 7 4 3 2 1 1 1 3 3 3 5 5 8 11 11 11 9 9 7 7 5 5 5 5 5 5 5 5 5 5 4 4 4 4 4 3 3 3 3 3 3 3 3 4 4 4 3
6 7 5 3 2 1 1 1 0 5 2 5 7 9 9 9 9 10 9 8 8 7 6 5 5 5 4 3 4 3 3 3 3 4 4 4 4 3 3 3 2 2 3 3 3 3 3 2 2
5 5 5 3 2 0 1 0 1 2 6 6 8 11 10 10 10 10 10 8 7 7 6 5 5 5 4 4 3 3 2 2 2 2 4 4 3 2 1 1 1 1 1 1 2 1 2 2 2
6 4 5 4 2 2 0 1 1 3 4 4 6 8 10 10 9 7 8 8 7 7 6 5 5 5 4 3 2 2 2 2 2 2 3 4 3 2 1 1 1 0 0 0 0 1 1 1 2
6 4 3 3 2 2 3 4 2 6 4 5 7 8 9 10 9 7 7 7 8 8 7 6 6 5 5 3 2 2 2 2 2 2 3 4 3 2 2 1 0 0 1 1 1 1 1 2 2
2 2 3 3 3 3 3 4 6 7 5 6 7 7 8 8 9 10 10 9 9 8 7 6 6 5 5 4 3 2 2 3 2 2 3 3 3 3 2 1 1 1 1 1 1 1 1 2 2
2 2 4 4 4 4 6 8 8 6 6 7 7 7 8 8 9 9 9 8 8 7 7 6 6 5 5 4 3 2 2 2 2 2 2 3 3 3 3 2 2 2 1 0 1 1 1 2 2
2 5 6 4 5 4 6 7 7 5 7 8 7 8 8 7 7 7 8 9 9 9 8 7 5 6 5 3 2 2 2 2 1 2 2 2 3 3 3 2 2 2 1 1 1 1 1 2 3
7 6 5 7 5 4 6 8 8 5 6 8 8 8 8 9 9 8 8 8 8 8 7 7 6 5 4 3 2 1 1 1 1 1 2 2 2 2 2 2 2 2 1 1 1 2 2 2 3
6 6 6 6 4 4 7 9 10 8 6 7 8 8 8 9 8 7 7 7 7 7 7 7 6 5 4 3 3 2 2 2 2 2 2 2 2 2 2 2 2 2 2 2 2 1 2 2 1
5 6 5 4 3 4 6 10 9 8 8 8 9 9 9 7 5 5 6 6 7 8 8 7 7 6 5 4 4 3 3 2 3 2 2 2 2 2 2 2 2 2 2 2 2 1 1 2 1
6 7 7 4 1 1 1 7 7 6 4 5 6 7 7 8 8 7 7 7 7 7 7 7 7 6 5 4 2 1 1 1 0 1 2 2 2 3 2 3 2 2 2 3 3 3 2 2 2
7 5 5 4 3 3 4 4 7 5 5 6 6 6 7 7 7 7 7 8 8 7 6 6 6 6 5 5 4 4 3 2 2 2 2 2 2 2 3 3 3 3 2 3 3 3 2 2 2
4 3 3 4 4 2 3 4 7 2 6 9 7 6 6 6 7 8 8 8 7 6 6 5 5 5 5 5 5 5 3 2 1 1 2 2 2 2 3 3 2 3 3 3 3 3 3 3 3
2 3 2 2 2 5 7 6 7 5 8 7 6 6 6 5 5 6 6 6 5 4 4 4 5 4 4 5 4 5 4 3 1 1 2 2 2 2 3 3 2 3 3 4 4 4 4 4 4
3 5 2 0 2 7 5 6 7 5 5 7 7 6 5 5 5 5 6 5 5 4 4 5 5 4 3 4 4 5 5 4 4 3 3 3 2 2 3 3 3 3 3 3 3 3 4 4 4
4 6 6 5 6 4 3 7 5 4 4 2 2 3 3 3 4 5 6 6 5 5 4 4 5 4 3 4 3 3 3 3 3 3 3 3 3 3 3 3 3 3 3 3 3 3 3 3 4
4 4 4 3 2 2 4 4 4 4 5 4 2 2 2 2 3 4 4 5 5 4 4 5 5 4 3 3 3 2 2 3 3 3 2 2 2 2 2 2 2 2 2 3 2 2 3 3 3
2 4 3 3 4 4 3 3 3 3 2 1 1 2 1 2 2 2 3 3 3 3 2 3 4 4 3 3 2 2 2 2 2 1 2 2 2 2 2 2 2 2 2 2 2 2 3 3 3
2 2 2 2 3 4 3 4 2 4 3 2 1 2 3 2 2 2 2 2 2 2 2 2 2 2 2 2 2 1 2 2 1 1 2 2 2 2 2 2 2 2 2 2 2 2 2 2 2
2 3 4 3 3 3 3 4 4 1 1 2 2 2 2 3 3 3 3 3 3 2 2 1 1 2 2 2 2 2 1 1 1 1 2 2 2 2 2 2 2 2 2 2 2 3 2 2 2
Wind_Direction
273 45 79 66 67 68 232 242 226 218 189 177 117 111 116 115 141 157 148 142 137 138 136 133 129 126 122 118 114 112 108 105 102 98 95 93 90 88 85 82 80 79 78 78 78 75 72 70 70
79 79 69 70 109 172 251 245 228 224 189 151 105 99 93 89 94 116 130 140 136 133 132 133 130 126 124 120 117 114 110 106 103 99 95 94 91 87 85 83 79 74 72 72 71 66 64 67 61
90 122 101 100 157 191 220 230 213 232 196 161 102 73 107 131 134 138 146 138 126 124 130 132 129 126 124 120 117 114 111 107 104 101 98 96 94 89 82 80 78 74 70 67 65 59 52 53 49
86 79 74 121 217 224 214 228 183 153 78 90 116 80 72 109 153 143 136 132 124 124 126 131 130 127 124 119 116 114 113 110 107 103 100 98 96 91 83 76 71 69 67 63 59 53 45 39 25
75 100 125 216 235 247 238 247 246 203 164 111 110 105 73 355 111 125 132 132 131 132 127 130 129 125 121 118 116 114 112 111 110 106 103 102 97 90 85 80 73 65 65 62 54 43 32 20 5
90 99 146 214 236 253 255 236 223 200 171 123 111 116 124 96 118 130 133 131 133 131 118 122 125 123 122 119 116 116 115 111 109 106 101 96 94 91 87 79 70 63 57 49 39 29 17 7 3
136 143 187 202 220 242 243 218 185 178 163 172 140 122 137 166 145 132 126 125 122 121 115 111 118 120 122 122 120 118 115 113 110 106 99 91 91 89 84 77 67 63 49 35 23 15 9 2 1
155 146 203 209 204 229 238 192 164 160 167 155 125 138 169 189 156 121 112 115 118 118 119 113 112 114 115 121 123 119 117 114 111 106 98 92 89 83 79 73 63 57 48 36 23 11 359 1 1
139 141 209 211 198 217 226 102 14 57 107 72 90 158 167 151 135 117 112 111 122 127 129 122 115 111 112 119 123 120 120 118 113 109 103 92 85 86 79 68 60 53 45 34 18 8 4 359 357
151 192 217 223 212 201 349 97 149 72 68 65 58 72 117 134 137 137 141 145 148 151 150 141 131 122 114 120 119 114 116 115 112 113 111 103 97 90 78 68 54 41 34 27 15 5 8 5 357
178 202 222 257 261 231 348 345 338 131 175 182 154 143 141 144 147 152 158 159 161 159 154 153 145 131 119 111 118 110 109 114 117 122 121 116 104 89 72 65 48 32 27 30 10 12 12 1 348
192 227 219 246 266 267 248 285 349 197 203 183 163 153 155 158 165 168 168 166 161 157 161 158 146 135 131 125 127 129 119 125 132 146 139 126 110 100 89 81 59 50 36 29 17 15 1 339 320
214 229 234 236 251 245 239 242 223 258 221 161 146 150 163 170 176 177 169 165 159 161 165 164 154 147 142 133 140 139 149 158 163 161 157 148 139 154 135 109 88 65 42 75 11 4 336 311 303
205 217 241 251 244 245 208 259 231 242 185 159 161 173 180 180 181 175 171 170 169 167 166 164 159 154 144 146 157 161 158 162 158 168 179 167 158 157 157 165 196 276 256 247 242 268 296 294 290
182 192 283 253 217 212 161 276 232 226 178 181 190 191 190 192 184 184 183 178 176 172 166 167 165 156 155 159 166 158 164 157 157 175 179 177 173 167 164 182 215 240 257 280 316 317 314 304 307
125 164 224 247 198 192 161 242 249 222 181 199 205 202 201 203 195 192 185 176 173 166 166 171 166 161 166 167 168 163 163 159 176 187 189 192 190 179 165 181 216 224 202 162 269 278 293 294 294
171 195 212 247 209 173 179 237 254 229 188 205 211 206 203 204 205 198 185 175 171 170 168 167 161 163 169 166 160 162 162 173 185 189 194 206 195 180 171 189 211 194 169 217 260 288 271 284 295
195 194 204 214 217 183 213 241 254 254 209 213 215 212 206 203 209 198 186 178 170 167 166 166 163 165 162 150 136 137 153 204 198 195 199 204 198 192 179 196 213 186 199 233 238 260 276 264 276
184 188 213 232 227 204 230 245 248 249 231 225 225 220 215 213 211 193 180 170 162 161 162 166 163 168 157 154 161 174 202 222 223 222 214 208 202 199 183 210 215 207 211 227 232 246 273 280 292
205 214 230 264 240 215 243 259 253 241 225 216 215 215 213 211 201 188 174 165 165 169 170 169 170 173 174 178 181 188 192 215 216 227 241 221 205 204 198 204 220 220 219 234 240 240 253 279 288
222 208 209 217 306 304 257 285 263 255 232 229 220 211 205 198 195 189 176 171 166 170 175 177 177 177 177 168 147 114 80 42 334 248 243 244 224 218 212 216 218 224 211 223 234 229 220 247 269
228 216 203 195 169 242 177 259 272 245 249 240 232 219 212 206 193 184 176 175 179 183 177 174 175 172 173 163 163 167 179 199 223 225 235 257 244 235 227 223 221 220 221 229 236 236 237 218 247
211 198 199 202 179 236 211 215 278 242 242 242 235 225 218 206 191 182 174 175 175 171 168 171 169 173 171 170 175 180 193 206 227 232 232 244 256 251 246 238 232 229 229 232 235 240 242 227 229
140 93 53 56 115 237 216 190 268 232 227 235 229 221 210 193 176 170 165 152 149 152 156 160 163 175 177 175 178 185 189 190 184 229 233 248 259 260 261 259 249 239 234 233 234 233 235 238 238
112 115 96 313 219 240 198 189 246 253 244 227 221 220 203 176 162 161 152 147 146 145 161 165 163 170 176 180 188 194 193 188 194 209 219 236 254 268 258 267 254 249 243 238 232 234 240 241 241
198 158 168 189 206 253 188 214 252 300 301 278 205 194 167 160 157 159 162 157 157 155 158 164 167 171 179 184 199 202 193 194 208 216 220 226 235 243 245 250 253 248 244 244 235 241 247 250 248
157 195 179 147 173 212 236 259 308 351 3 20 53 94 125 147 149 153 153 152 153 157 165 174 174 176 186 190 197 201 199 204 216 226 227 233 245 247 246 245 258 258 246 243 244 248 250 252 251
153 152 116 145 171 220 251 246 254 270 279 1 68 116 126 110 102 130 146 152 153 156 157 162 169 178 187 192 201 213 221 222 222 221 238 246 249 245 238 246 255 264 262 258 254 267 261 254 260
111 119 128 159 181 173 217 256 243 225 210 193 191 153 149 129 111 117 129 136 124 107 109 120 156 156 175 197 210 215 233 233 217 228 244 244 245 246 235 241 250 259 271 274 259 259 262 259 271
192 178 153 168 229 206 195 258 332 344 109 109 102 88 94 90 75 77 86 90 86 86 88 95 126 170 192 203 206 222 240 230 224 239 249 241 244 244 246 247 250 261 272 272 264 260 263 257 264
Height
1499 1501 1503 1505 1509 1518 1516 1506 1497 1493 1492 1491 1490 1490 1492 1497 1501 1508 1505 1505 1508 1510 1512 1514 1516 1517 1519 1520 1521 1522 1523 1524 1524 1525 1525 1526 1526 1526 1526 1526 1527 1527 1527 1527 1527 1527 1527 1527 1527
1499 1501 1504 1505 1512 1521 1514 1501 1495 1490 1489 1489 1490 1491 1492 1497 1498 1500 1502 1506 1508 1510 1512 1513 1515 1517 1518 1519 1521 1522 1522 1523 1524 1524 1525 1525 1525 1525 1526 1526 1526 1526 1526 1526 1526 1526 1526 1525 1525
1498 1500 1503 1505 1511 1513 1504 1493 1490 1487 1487 1488 1490 1492 1494 1497 1498 1500 1502 1505 1508 1510 1512 1513 1515 1517 1518 1519 1520 1521 1522 1523 1523 1524 1524 1524 1524 1524 1524 1525 1524 1524 1524 1524 1524 1524 1524 1524 1524
1498 1501 1503 1507 1506 1500 1493 1488 1486 1486 1486 1487 1488 1493 1495 1498 1499 1500 1503 1506 1508 1510 1512 1513 1515 1516 1517 1519 1520 1520 1521 1522 1522 1522 1523 1523 1523 1523 1523 1523 1523 1523 1523 1523 1523 1523 1523 1523 1523
1497 1499 1504 1506 1501 1494 1488 1486 1486 1486 1486 1487 1488 1492 1496 1498 1500 1501 1503 1505 1507 1509 1511 1513 1515 1516 1517 1518 1519 1520 1520 1521 1521 1521 1522 1522 1522 1522 1522 1522 1521 1521 1521 1521 1521 1521 1521 1521 1521
1496 1497 1506 1506 1498 1491 1487 1485 1485 1485 1486 1487 1488 1492 1496 1499 1500 1502 1504 1506 1508 1509 1511 1513 1514 1515 1516 1517 1518 1519 1519 1519 1520 1520 1520 1520 1520 1520 1520 1520 1520 1520 1520 1519 1519 1519 1519 1519 1519
1494 1498 1500 1498 1495 1490 1485 1483 1484 1484 1485 1486 1487 1491 1496 1499 1500 1502 1504 1506 1508 1509 1510 1512 1513 1514 1515 1516 1517 1517 1518 1518 1518 1519 1519 1519 1519 1518 1518 1518 1518 1518 1518 1518 1518 1517 1517 1517 1517
1491 1495 1495 1494 1491 1488 1482 1482 1482 1482 1484 1485 1486 1489 1493 1497 1499 1502 1504 1506 1507 1509 1510 1511 1512 1513 1514 1515 1516 1516 1517 1517 1517 1517 1517 1517 1517 1517 1517 1516 1516 1516 1516 1516 1515 1515 1515 1515 1515
1489 1495 1494 1489 1487 1483 1480 1481 1481 1482 1482 1484 1485 1487 1489 1494 1498 1500 1503 1505 1506 1508 1509 1510 1511 1512 1513 1514 1514 1515 1515 1515 1516 1516 1516 1516 1516 1515 1515 1515 1515 1514 1514 1514 1513 1513 1513 1512 1512
1487 1492 1487 1482 1480 1480 1480 1480 1481 1482 1482 1484 1485 1487 1490 1493 1496 1498 1500 1502 1504 1506 1507 1509 1510 1511 1512 1512 1513 1513 1514 1514 1514 1514 1514 1514 1514 1514 1514 1513 1513 1513 1512 1512 1511 1511 1511 1510 1510
1483 1484 1481 1479 1479 1479 1479 1480 1480 1481 1483 1483 1483 1486 1489 1492 1495 1497 1499 1501 1502 1504 1506 1507 1508 1509 1510 1510 1511 1511 1512 1512 1512 1513 1512 1512 1512 1512 1512 1512 1511 1511 1510 1510 1509 1509 1508 1508 1507
1480 1479 1478 1478 1478 1478 1479 1479 1480 1480 1480 1482 1483 1485 1488 1490 1493 1495 1497 1499 1501 1503 1504 1505 1506 1507 1508 1509 1509 1510 1510 1510 1511 1511 1511 1511 1510 1510 1510 1510 1509 1509 1508 1508 1507 1506 1506 1505 1505
1478 1477 1477 1477 1477 1478 1478 1479 1479 1479 1480 1481 1483 1485 1487 1489 1491 1494 1496 1498 1499 1501 1502 1503 1504 1505 1506 1507 1507 1508 1508 1508 1509 1509 1509 1509 1509 1508 1508 1508 1507 1507 1506 1505 1505 1504 1503 1503 1502
1475 1476 1476 1476 1476 1477 1478 1478 1479 1477 1479 1480 1481 1483 1485 1487 1489 1492 1494 1495 1497 1498 1500 1501 1502 1503 1504 1505 1505 1506 1506 1506 1507 1507 1507 1507 1507 1506 1506 1506 1505 1505 1504 1503 1503 1502 1501 1500 1499
1473 1476 1476 1475 1475 1476 1477 1479 1476 1475 1477 1478 1479 1481 1483 1485 1487 1489 1491 1492 1494 1496 1498 1499 1500 1501 1502 1503 1503 1504 1504 1504 1505 1505 1505 1505 1505 1504 1504 1504 1503 1503 1502 1501 1500 1499 1498 1497 1496
1473 1477 1480 1474 1473 1474 1479 1480 1473 1473 1474 1475 1476 1478 1480 1482 1484 1486 1488 1490 1492 1493 1495 1497 1498 1499 1500 1501 1501 1502 1502 1502 1503 1503 1503 1503 1503 1502 1502 1502 1501 1500 1500 1499 1498 1497 1496 1495 1493
1476 1481 1479 1476 1472 1473 1476 1476 1470 1471 1472 1472 1474 1475 1477 1479 1481 1483 1485 1487 1489 1491 1492 1494 1495 1496 1497 1498 1499 1500 1500 1500 1500 1500 1500 1500 1500 1500 1500 1499 1498 1498 1497 1496 1495 1494 1493 1492 1491
1477 1478 1476 1475 1471 1472 1474 1473 1469 1469 1470 1470 1471 1472 1474 1475 1477 1480 1482 1484 1486 1488 1489 1491 1492 1494 1495 1496 1497 1497 1498 1498 1498 1498 1498 1498 1498 1497 1497 1496 1496 1495 1494 1494 1493 1492 1491 1490 1489
1469 1472 1473 1472 1468 1471 1472 1471 1468 1466 1467 1467 1468 1469 1470 1471 1474 1476 1478 1480 1482 1484 1486 1487 1489 1490 1491 1492 1493 1493 1494 1495 1495 1495 1495 1495 1495 1495 1494 1494 1493 1492 1492 1491 1490 1489 1488 1487 1486
1467 1471 1472 1470 1468 1469 1471 1469 1465 1464 1463 1463 1464 1465 1466 1468 1470 1472 1474 1476 1478 1480 1482 1483 1485 1487 1488 1489 1490 1491 1492 1492 1492 1493 1492 1492 1492 1492 1491 1491 1490 1489 1489 1488 1487 1486 1485 1484 1484
1466 1469 1470 1470 1468 1468 1471 1470 1465 1461 1460 1461 1460 1461 1462 1464 1465 1467 1470 1472 1474 1476 1478 1479 1481 1483 1485 1486 1487 1488 1489 1489 1489 1489 1489 1489 1489 1489 1488 1488 1487 1486 1486 1485 1484 1484 1483 1482 1482
1465 1462 1465 1467 1473 1477 1473 1480 1465 1461 1459 1458 1457 1458 1458 1460 1462 1463 1465 1468 1470 1472 1474 1476 1478 1480 1482 1483 1484 1484 1484 1484 1485 1485 1486 1486 1486 1486 1485 1485 1484 1484 1483 1482 1482 1481 1480 1480 1479
1461 1461 1464 1467 1471 1477 1475 1478 1467 1461 1460 1456 1454 1454 1455 1456 1458 1460 1461 1464 1466 1469 1471 1473 1475 1477 1478 1479 1480 1481 1482 1482 1483 1483 1483 1483 1483 1483 1482 1482 1481 1480 1480 1479 1479 1478 1478 1477 1476
1459 1463 1466 1470 1474 1477 1472 1477 1469 1462 1455 1452 1451 1451 1452 1453 1454 1457 1459 1461 1463 1466 1468 1470 1472 1473 1475 1476 1477 1478 1479 1479 1480 1480 1480 1479 1479 1479 1479 1479 1478 1477 1477 1476 1476 1475 1474 1474 1473
1460 1468 1477 1478 1480 1475 1467 1469 1463 1453 1450 1448 1448 1448 1449 1451 1452 1454 1456 1458 1460 1462 1465 1466 1468 1470 1472 1473 1474 1475 1476 1476 1477 1477 1477 1476 1476 1476 1475 1475 1475 1474 1474 1473 1473 1472 1471 1471 1470
1461 1465 1474 1476 1476 1472 1466 1467 1458 1451 1447 1445 1446 1447 1448 1450 1451 1452 1454 1456 1458 1460 1462 1464 1465 1467 1469 1470 1471 1472 1473 1474 1474 1474 1474 1474 1473 1473 1473 1472 1472 1471 1471 1470 1470 1469 1468 1467 1466
1462 1464 1465 1471 1473 1471 1466 1460 1454 1449 1447 1446 1446 1446 1447 1449 1450 1451 1453 1455 1456 1458 1459 1461 1462 1464 1465 1467 1468 1469 1470 1470 1471 1471 1471 1471 1471 1470 1470 1469 1469 1468 1468 1467 1466 1465 1465 1464 1463
1459 1461 1468 1472 1471 1467 1461 1459 1459 1452 1450 1448 1447 1447 1448 1449 1449 1451 1452 1454 1455 1456 1457 1459 1460 1461 1463 1464 1465 1466 1467 1468 1468 1468 1468 1468 1468 1467 1467 1466 1466 1465 1465 1464 1463 1462 1462 1461 1460
1462 1464 1465 1470 1469 1468 1466 1460 1450 1449 1448 1448 1448 1447 1448 1448 1449 1450 1452 1453 1454 1455 1456 1457 1458 1459 1460 1461 1462 1463 1464 1464 1465 1465 1465 1465 1465 1465 1464 1463 1463 1462 1462 1461 1460 1459 1459 1458 1457
1460 1461 1466 1471 1471 1469 1466 1462 1449 1447 1447 1448 1448 1449 1449 1450 1450 1451 1451 1452 1453 1454 1454 1455 1456 1457 1458 1459 1460 1460 1461 1461 1461 1462 1462 1462 1462 1462 1461 1461 1460 1460 1459 1458 1457 1456 1455 1455 1454